TimeCDT,TemperatureF,Dew PointF,Humidity,Sea Level PressureIn,VisibilityMPH,Wind Direction,Wind SpeedMPH,Gust SpeedMPH,PrecipitationIn,Events,Conditions,WindDirDegrees,DateUTC
12:52 AM,70.0,61.0,73,30.02,10.0,North,-9999.0,-,N/A,,Clear,0,2013-07-25 05:52:00
1:52 AM,71.1,60.1,68,30.02,10.0,North,-9999.0,-,N/A,,Clear,0,2013-07-25 06:52:00
2:52 AM,70.0,62.1,76,30.01,10.0,North,-9999.0,-,N/A,,Clear,0,2013-07-25 07:52:00
3:52 AM,69.1,62.1,78,30.01,10.0,North,-9999.0,-,N/A,,Clear,0,2013-07-25 08:52:00
4:52 AM,68.0,62.1,81,29.99,10.0,North,-9999.0,-,N/A,,Clear,0,2013-07-25 09:52:00
5:52 AM,69.1,63.0,81,29.99,10.0,North,-9999.0,-,N/A,,Clear,0,2013-07-25 10:52:00
6:52 AM,69.1,64.9,87,30.01,10.0,SW,4.6,-,N/A,,Clear,220,2013-07-25 11:52:00
7:52 AM,72.0,68.0,87,30.02,10.0,SE,4.6,-,N/A,,Clear,140,2013-07-25 12:52:00
8:52 AM,73.9,69.1,85,30.02,10.0,Variable,3.5,-,N/A,,Partly Cloudy,0,2013-07-25 13:52:00
9:52 AM,77.0,70.0,79,30.02,10.0,Variable,3.5,-,N/A,,Clear,0,2013-07-25 14:52:00
10:52 AM,82.0,71.1,69,30.00,10.0,SE,9.2,-,N/A,,Clear,140,2013-07-25 15:52:00
11:52 AM,82.0,69.1,65,30.01,10.0,South,11.5,-,N/A,,Clear,170,2013-07-25 16:52:00
12:52 PM,84.9,69.1,59,30.00,10.0,SE,12.7,-,N/A,,Clear,140,2013-07-25 17:52:00
1:52 PM,79.0,71.1,77,30.02,7.0,South,6.9,-,0.01,Rain,Light Rain,170,2013-07-25 18:52:00
2:52 PM,81.0,71.1,72,30.01,10.0,South,6.9,-,0.00,,Mostly Cloudy,180,2013-07-25 19:52:00
3:05 PM,80.6,71.6,74,30.06,10.0,SSE,8.1,-,0.00,Rain-Thunderstorm,Light Thunderstorms and Rain,160,2013-07-25 20:05:00
3:24 PM,77.0,69.8,78,30.08,2.5,SSW,5.8,-,0.05,Rain-Thunderstorm,Heavy Thunderstorms and Rain,200,2013-07-25 20:24:00
3:33 PM,78.8,71.6,78,30.07,5.0,South,12.7,17.3,0.05,Rain-Thunderstorm,Thunderstorms and Rain,180,2013-07-25 20:33:00
3:45 PM,78.8,71.6,78,30.06,8.0,SSE,6.9,-,0.05,Rain,Light Rain,160,2013-07-25 20:45:00
3:52 PM,79.0,71.1,77,29.99,10.0,SSE,8.1,-,0.05,Rain,Light Rain,160,2013-07-25 20:52:00
4:52 PM,80.1,71.1,74,29.99,10.0,SSE,4.6,-,0.00,,Clear,150,2013-07-25 21:52:00
5:52 PM,81.0,71.1,72,29.96,10.0,ESE,6.9,-,0.00,,Partly Cloudy,120,2013-07-25 22:52:00
6:52 PM,80.1,66.0,62,29.95,10.0,SSE,12.7,-,N/A,,Mostly Cloudy,160,2013-07-25 23:52:00
7:52 PM,78.1,68.0,71,29.97,10.0,South,8.1,-,N/A,,Overcast,170,2013-07-26 00:52:00
8:52 PM,77.0,69.1,76,29.96,10.0,SSE,11.5,-,N/A,,Overcast,150,2013-07-26 01:52:00
9:52 PM,75.0,69.1,82,29.96,10.0,SSE,11.5,-,0.00,,Mostly Cloudy,150,2013-07-26 02:52:00
10:52 PM,75.0,70.0,84,29.96,10.0,SSE,8.1,-,0.00,Rain,Light Rain,150,2013-07-26 03:52:00
11:52 PM,75.0,71.1,87,29.99,8.0,Calm,Calm,-,0.00,Rain,Light Rain,0,2013-07-26 04:52:00